Darstellungsparameter: Aktuell verwendete Einstellungen:
Skalierung der Graphiken ... ?
xyx+y,   Skalierungsfaktor:      Skalierung: Modus: x, Faktor: 1
Darstellungszeitraum ... ?
Vom - - bis: - -   Zeitraum: 25.04.2019 - 27.04.2019
Min/Max/Avg-Anzeige ... ?
Zeige MMA aktuell
Zeige MMA Monat
Zeige MMA alles
Zeige --A aktuell
Zeige --A Monat
Zeige --A alles
Keine MMA-Anzeige
MMA:
Average (ber die Originaldaten)
MMA-Basis: 25.04.2019 - 27.04.2019
Quicknavigation für Darstellung... ?
Tage:      1T, 2T, 3T, 5T -1T -2T -3T -5T +1T +2T +3T +5T
Wochen: 1W, 2W, 3W -1W -2W -3W +1W +2W +3W
Monate: 1M, 3M, 6M -1M -3M -6M +1M +3M +6M
Jahre:    1J, 3J, 5J, 10J -1J -3J -5J -10J +1J +3J +5J +10J
Nutze für die Darstellung ... ?
Originaldaten oder ...
Mittelwerte Minima Maxima auf...
Stundenbasis Tagesbasis Wochenbasis
Monatsbasis Jahresbasis      Datenbasis: Mittelwerte auf Stundenbasis
Darstellen als:
Statistik (Auto) Statistik J:M      Darstellung:
Zur Graphik,    zurück zur Übersicht aller Sensoren.
 
Tabellarische Datenbersicht: ?
 
Sensor: Nr:Datum:Temp:Abs-Feuchte:Windchill:Wind:
Aussen-T/F 1 25-04-2019 00:00:00 8.85833 C 8.3 g/m*3 8.86 C 0.4 km/h
2 25-04-2019 01:00:00 8.125 C 7.92 g/m*3 8.13 C 0.66667 km/h
3 25-04-2019 02:00:00 7.45 C 7.6 g/m*3 7.45 C 0 km/h
4 25-04-2019 03:00:00 7.2 C 7.54 g/m*3 7.2 C 0 km/h
5 25-04-2019 04:00:00 7.05833 C 7.47 g/m*3 7.06 C 0 km/h
6 25-04-2019 05:00:00 7.10833 C 7.49 g/m*3 7.11 C 0 km/h
7 25-04-2019 06:00:00 7.05833 C 7.53 g/m*3 7.06 C 0.4 km/h
8 25-04-2019 07:00:00 7.85833 C 7.95 g/m*3 7.86 C 0.53333 km/h
9 25-04-2019 08:00:00 9.16667 C 8.64 g/m*3 9.17 C 3.06667 km/h
10 25-04-2019 09:00:00 10.63333 C 9.49 g/m*3 10.63 C 0.13333 km/h
11 25-04-2019 10:00:00 11.54167 C 9.93 g/m*3 11.54 C 1.75 km/h
12 25-04-2019 11:00:00 14.14167 C 9.69 g/m*3 14.14 C 8.06667 km/h
13 25-04-2019 12:00:00 16.96667 C 9.24 g/m*3 16.97 C 8.60833 km/h
14 25-04-2019 13:00:00 18.6 C 9.35 g/m*3 18.6 C 8.61667 km/h
15 25-04-2019 14:00:00 20.25833 C 9.3 g/m*3 20.26 C 7.39167 km/h
16 25-04-2019 15:00:00 21.525 C 9.32 g/m*3 21.53 C 8.19167 km/h
17 25-04-2019 16:00:00 22.125 C 10.75 g/m*3 22.13 C 3.21667 km/h
18 25-04-2019 17:00:00 21.35 C 11.08 g/m*3 21.35 C 6.725 km/h
19 25-04-2019 18:00:00 20.55833 C 9.8 g/m*3 20.56 C 13.95833 km/h
20 25-04-2019 19:00:00 16.88333 C 8.82 g/m*3 16.88 C 17.45 km/h
21 25-04-2019 20:00:00 15.125 C 8.62 g/m*3 15.13 C 12.61667 km/h
22 25-04-2019 21:00:00 13.85 C 8.64 g/m*3 13.85 C 7.125 km/h
23 25-04-2019 22:00:00 13.04167 C 8.49 g/m*3 13.04 C 2.4 km/h
24 25-04-2019 23:00:00 12.425 C 8.57 g/m*3 12.43 C 0 km/h
25 26-04-2019 00:00:00 11.39167 C 8.43 g/m*3 11.39 C 0 km/h
Sensor: Nr:Datum:Temp:Abs-Feuchte:Windchill:Wind:
Aussen-T/F 26 26-04-2019 01:00:00 10.93333 C 8.5 g/m*3 10.93 C 0 km/h
27 26-04-2019 02:00:00 11.00833 C 8.44 g/m*3 11.01 C 0 km/h
28 26-04-2019 03:00:00 10.98333 C 8.31 g/m*3 10.98 C 0 km/h
29 26-04-2019 04:00:00 10.8 C 8.27 g/m*3 10.8 C 2.80833 km/h
30 26-04-2019 05:00:00 10.4 C 8.38 g/m*3 10.4 C 2.80833 km/h
31 26-04-2019 06:00:00 9.625 C 8.44 g/m*3 9.63 C 0.93333 km/h
32 26-04-2019 07:00:00 9.5 C 8.55 g/m*3 9.5 C 0.93333 km/h
33 26-04-2019 08:00:00 9.50833 C 8.62 g/m*3 9.51 C 0.8 km/h
34 26-04-2019 09:00:00 9.99167 C 8.92 g/m*3 9.99 C 3.08333 km/h
35 26-04-2019 10:00:00 10.275 C 9.08 g/m*3 10.28 C 3.48333 km/h
36 26-04-2019 11:00:00 10.88333 C 9.29 g/m*3 10.88 C 4.55833 km/h
37 26-04-2019 12:00:00 11.95833 C 9.42 g/m*3 11.96 C 8.73333 km/h
38 26-04-2019 13:00:00 13.00833 C 9.36 g/m*3 13.01 C 9.68333 km/h
39 26-04-2019 14:00:00 13.53333 C 9.16 g/m*3 13.53 C 10.9 km/h
40 26-04-2019 15:00:00 13.525 C 8.98 g/m*3 13.53 C 9 km/h
41 26-04-2019 16:00:00 15.06667 C 9.1 g/m*3 15.07 C 8.74167 km/h
42 26-04-2019 17:00:00 15.74167 C 8.85 g/m*3 15.74 C 6.025 km/h
43 26-04-2019 18:00:00 16.925 C 8.93 g/m*3 16.93 C 3.60833 km/h
44 26-04-2019 19:00:00 15.84167 C 9.71 g/m*3 15.84 C 0 km/h
45 26-04-2019 20:00:00 12.575 C 8.92 g/m*3 12.58 C 7.89167 km/h
46 26-04-2019 21:00:00 10.89167 C 8.66 g/m*3 10.89 C 2.13333 km/h
47 26-04-2019 22:00:00 10.45833 C 8.59 g/m*3 10.46 C 0 km/h
48 26-04-2019 23:00:00 10.00833 C 8.49 g/m*3 10.01 C 0 km/h
49 27-04-2019 00:00:00 9.20833 C 8.21 g/m*3 9.21 C 0 km/h
50 27-04-2019 01:00:00 9.14167 C 8.27 g/m*3 9.14 C 0 km/h
Sensor: Nr:Datum:Temp:Abs-Feuchte:Windchill:Wind:
Aussen-T/F 51 27-04-2019 02:00:00 8.575 C 7.99 g/m*3 8.57 C 0.26667 km/h
52 27-04-2019 03:00:00 7.875 C 7.71 g/m*3 7.88 C 0 km/h
53 27-04-2019 04:00:00 7.18333 C 7.39 g/m*3 7.18 C 0 km/h
54 27-04-2019 05:00:00 6.64167 C 7.18 g/m*3 6.64 C 0 km/h
55 27-04-2019 06:00:00 6.425 C 7.12 g/m*3 6.43 C 0 km/h
56 27-04-2019 07:00:00 7.15 C 7.51 g/m*3 7.15 C 0 km/h
57 27-04-2019 08:00:00 8.66667 C 8.36 g/m*3 8.67 C 0 km/h
58 27-04-2019 09:00:00 10.16667 C 9.01 g/m*3 10.17 C 1.33333 km/h
59 27-04-2019 10:00:00 11.30833 C 8.95 g/m*3 11.31 C 3.075 km/h
60 27-04-2019 11:00:00 12.64167 C 8.49 g/m*3 12.64 C 11.14167 km/h
61 27-04-2019 12:00:00 12.69167 C 9.08 g/m*3 12.69 C 9.29167 km/h
62 27-04-2019 13:00:00 13.025 C 8.85 g/m*3 13.03 C 14.90833 km/h
63 27-04-2019 14:00:00 9.525 C 8.21 g/m*3 8.62 C 7.24167 km/h
64 27-04-2019 15:00:00 10.46667 C 8.71 g/m*3 10.47 C 3.475 km/h
65 27-04-2019 16:00:00 11.75 C 8.58 g/m*3 11.75 C 6.85 km/h
66 27-04-2019 17:00:00 12.35 C 8.56 g/m*3 12.35 C 6.84167 km/h
67 27-04-2019 18:00:00 11.34167 C 8.22 g/m*3 11.34 C 5.89167 km/h
68 27-04-2019 19:00:00 9.55833 C 8.23 g/m*3 8.92 C 6.16667 km/h
69 27-04-2019 20:00:00 7.725 C 7.49 g/m*3 7.73 C 3.33333 km/h
70 27-04-2019 21:00:00 7.3 C 7.41 g/m*3 7.3 C 0.8 km/h
71 27-04-2019 22:00:00 6.76667 C 7.22 g/m*3 6.77 C 1.33333 km/h
72 27-04-2019 23:00:00 6.84167 C 7.28 g/m*3 6.84 C 4.55833 km/h

Maximal/Minimal-Werte vom 25.04.2019 - 27.04.2019

Sensor Min Max Avg
Temp
(Aussen-T/F)
6.3 °C
27-04-2019  06:05:00
22.3 °C
25-04-2019  16:15:00
11.5 °C
Abs-Feuchte
(Aussen-T/F)
7.12 g/m*3
27-04-2019  06:00:00
11.08 g/m*3
25-04-2019  17:00:00
8.45 g/m*3
Windchill
(Aussen-T/F)
6.43 C
27-04-2019  06:00:00
22.13 C
25-04-2019  16:00:00
11.32 C

Die Daten stammen von einer Davis Vantage Pro 2 Wetter-Station und werden unter Linux mit der Software wview2wettercgi und aufbereitet. Alle Angaben erfolgen ohne Gewähr für ihre Vollständigkeit oder Richtigkeit.
Kontakt: Rainer Krienke krienke@uni-koblenz.de . Meine Webseiten an der Uni Koblenz oder privat.
Version: $Revision: 0.78 $